Track PUCP-SAT 1 now! 10-day predictions PUCP-SAT 1 is classified as:
1 39442U 13066AC 18115.15121186 .00000379 00000-0 44106-4 0 9997 2 39442 97.6047 170.8071 0030278 266.3951 93.3804 14.90485239239155